�������l�o���
Date,Time,MP-1(��Sv/h),MP-2(��Sv/h),MP-3(��Sv/h),MP-4(��Sv/h),MP-5(��Sv/h),MP-6(��Sv/h),MP-7(��Sv/h),����,����(m/s),���J
2021/12/27,00:00,0.161,0.147,0.231,0.224,0.227,0.124,0.079,��,10.0,��
2021/12/27,00:10,0.161,0.146,0.229,0.223,0.227,0.125,0.080,��,8.7,��
2021/12/27,00:20,0.160,0.146,0.229,0.222,0.226,0.125,0.080,���k��,11.5,��
2021/12/27,00:30,0.160,0.147,0.229,0.224,0.228,0.125,0.080,��,10.6,��
2021/12/27,00:40,0.161,0.147,0.230,0.224,0.228,0.125,0.080,���k��,8.8,��
2021/12/27,00:50,0.161,0.147,0.230,0.224,0.228,0.125,0.080,���k��,7.9,��
2021/12/27,01:00,0.160,0.147,0.230,0.224,0.227,0.125,0.080,��,8.5,��
2021/12/27,01:10,0.161,0.147,0.230,0.224,0.226,0.125,0.080,���k��,7.9,��
2021/12/27,01:20,0.161,0.146,0.229,0.223,0.228,0.124,0.080,���k��,8.5,��
2021/12/27,01:30,0.160,0.147,0.230,0.224,0.226,0.125,0.080,��,9.5,��
2021/12/27,01:40,0.161,0.147,0.229,0.223,0.228,0.125,0.080,���k��,7.5,��
2021/12/27,01:50,0.160,0.146,0.228,0.223,0.226,0.125,0.080,��,6.4,��
2021/12/27,02:00,0.161,0.146,0.228,0.223,0.226,0.125,0.079,�k��,2.3,��
2021/12/27,02:10,0.161,0.146,0.229,0.223,0.228,0.124,0.079,�k��,1.9,��
2021/12/27,02:20,0.160,0.146,0.229,0.223,0.227,0.124,0.080,���k��,2.1,��
2021/12/27,02:30,0.160,0.147,0.229,0.222,0.227,0.125,0.080,���k��,2.3,��
2021/12/27,02:40,0.160,0.146,0.229,0.223,0.226,0.124,0.080,�k��,1.7,��
2021/12/27,02:50,0.160,0.147,0.230,0.224,0.226,0.124,0.079,���k��,2.5,��
2021/12/27,03:00,0.160,0.146,0.229,0.225,0.227,0.124,0.080,�k��,2.4,��
2021/12/27,03:10,0.159,0.146,0.228,0.224,0.226,0.125,0.079,�k��,1.9,��
2021/12/27,03:20,0.160,0.147,0.229,0.224,0.227,0.124,0.079,��,3.7,��
2021/12/27,03:30,0.160,0.146,0.228,0.223,0.227,0.124,0.080,��,4.5,��
2021/12/27,03:40,0.160,0.147,0.228,0.223,0.227,0.124,0.079,��,4.0,��
2021/12/27,03:50,0.161,0.146,0.229,0.224,0.226,0.124,0.080,��,2.8,��
2021/12/27,04:00,0.160,0.147,0.228,0.223,0.226,0.124,0.079,��,3.3,��
2021/12/27,04:10,0.160,0.146,0.228,0.224,0.226,0.124,0.080,���쐼,1.3,��
2021/12/27,04:20,0.160,0.147,0.228,0.223,0.227,0.126,0.080,���쐼,1.3,��
2021/12/27,04:30,0.159,0.147,0.227,0.223,0.226,0.125,0.079,��,2.4,��
2021/12/27,04:40,0.160,0.146,0.227,0.223,0.227,0.124,0.080,��,2.7,��
2021/12/27,04:50,0.161,0.146,0.229,0.223,0.226,0.124,0.079,��,5.3,��
2021/12/27,05:00,0.160,0.146,0.229,0.224,0.226,0.124,0.080,��,4.5,��
2021/12/27,05:10,0.160,0.146,0.228,0.224,0.227,0.124,0.079,���쐼,3.5,��
2021/12/27,05:20,0.160,0.146,0.228,0.223,0.227,0.124,0.080,��,3.0,��
2021/12/27,05:30,0.160,0.146,0.229,0.223,0.227,0.124,0.079,��,3.4,��
2021/12/27,05:40,0.160,0.147,0.228,0.223,0.226,0.123,0.079,���쐼,4.8,��
2021/12/27,05:50,0.160,0.147,0.229,0.222,0.226,0.125,0.080,���쐼,5.0,��
2021/12/27,06:00,0.160,0.146,0.228,0.223,0.227,0.124,0.079,���쐼,2.4,��
2021/12/27,06:10,0.160,0.146,0.229,0.223,0.227,0.124,0.079,�쐼,3.0,��
2021/12/27,06:20,0.160,0.146,0.229,0.223,0.226,0.124,0.079,�쐼,1.9,��
2021/12/27,06:30,0.160,0.146,0.228,0.224,0.227,0.124,0.079,�쐼,3.1,��
2021/12/27,06:40,0.160,0.146,0.229,0.224,0.226,0.124,0.080,��쐼,4.0,��
2021/12/27,06:50,0.160,0.146,0.228,0.223,0.226,0.124,0.080,�쐼,3.4,��
2021/12/27,07:00,0.159,0.146,0.228,0.222,0.227,0.125,0.079,�쐼,3.5,��
2021/12/27,07:10,0.159,0.146,0.229,0.223,0.227,0.124,0.079,�쐼,1.6,��
2021/12/27,07:20,0.160,0.146,0.229,0.224,0.226,0.125,0.080,��쐼,1.0,��
2021/12/27,07:30,0.161,0.147,0.228,0.223,0.226,0.125,0.080,��쐼,1.3,��
2021/12/27,07:40,0.160,0.146,0.228,0.224,0.227,0.124,0.080,-,CALM,��
2021/12/27,07:50,0.160,0.147,0.229,0.222,0.227,0.125,0.079,�쐼,0.6,��
2021/12/27,08:00,0.160,0.146,0.229,0.222,0.226,0.125,0.079,��,1.8,��
2021/12/27,08:10,0.160,0.146,0.230,0.223,0.227,0.124,0.080,��,1.5,��
2021/12/27,08:20,0.161,0.146,0.228,0.223,0.226,0.123,0.079,��,0.9,��
2021/12/27,08:30,0.160,0.146,0.229,0.222,0.226,0.123,0.079,��쐼,2.0,��
2021/12/27,08:40,0.160,0.146,0.229,0.223,0.226,0.123,0.079,��,0.7,��
2021/12/27,08:50,0.160,0.146,0.227,0.223,0.227,0.123,0.079,�k,1.0,��
2021/12/27,09:00,0.160,0.146,0.229,0.222,0.226,0.124,0.079,���쐼,0.7,��
2021/12/27,09:10,0.159,0.145,0.228,0.223,0.226,0.124,0.078,��쐼,2.1,��
2021/12/27,09:20,0.159,0.146,0.228,0.223,0.226,0.124,0.079,��,1.0,��
2021/12/27,09:30,0.160,0.146,0.228,0.223,0.226,0.124,0.079,���쐼,4.2,��
2021/12/27,09:40,0.160,0.146,0.228,0.223,0.225,0.124,0.078,��쐼,1.5,��
2021/12/27,09:50,0.160,0.146,0.229,0.222,0.226,0.125,0.080,��,3.0,��
2021/12/27,10:00,0.159,0.145,0.228,0.222,0.226,0.125,0.079,���k��,3.0,��
2021/12/27,10:10,0.159,0.147,0.228,0.222,0.226,0.124,0.079,��,6.0,��
2021/12/27,10:20,0.159,0.145,0.228,0.222,0.226,0.124,0.078,��,6.2,��
2021/12/27,10:30,0.159,0.144,0.229,0.223,0.225,0.124,0.079,���쐼,5.1,��
2021/12/27,10:40,0.159,0.146,0.228,0.223,0.225,0.123,0.079,���쐼,5.8,��
2021/12/27,10:50,0.159,0.145,0.227,0.221,0.225,0.124,0.079,��,6.6,��
2021/12/27,11:00,0.158,0.145,0.227,0.222,0.226,0.124,0.079,���k��,4.9,��
2021/12/27,11:10,0.160,0.146,0.229,0.222,0.226,0.124,0.079,��,8.4,��
2021/12/27,11:20,0.159,0.146,0.228,0.223,0.227,0.124,0.080,���k��,5.4,��
2021/12/27,11:30,0.159,0.147,0.228,0.224,0.225,0.124,0.079,��,5.9,��
2021/12/27,11:40,0.159,0.147,0.228,0.222,0.225,0.124,0.079,���쐼,7.0,��
2021/12/27,11:50,0.160,0.146,0.228,0.222,0.227,0.125,0.080,��,6.7,��
2021/12/27,12:00,0.160,0.146,0.229,0.224,0.227,0.124,0.079,��,5.4,��
2021/12/27,12:10,0.159,0.146,0.228,0.223,0.226,0.124,0.080,���k��,4.7,��
2021/12/27,12:20,0.158,0.146,0.228,0.223,0.228,0.124,0.079,��,4.3,��
2021/12/27,12:30,0.160,0.147,0.227,0.223,0.227,0.124,0.079,��,6.0,��
2021/12/27,12:40,0.158,0.146,0.228,0.222,0.226,0.125,0.080,��,9.3,��
2021/12/27,12:50,0.159,0.146,0.228,0.222,0.228,0.125,0.078,��,5.2,��
2021/12/27,13:00,0.160,0.147,0.228,0.223,0.227,0.124,0.079,��,4.2,��
2021/12/27,13:10,0.159,0.146,0.227,0.224,0.226,0.125,0.079,��,6.0,��
2021/12/27,13:20,0.159,0.146,0.228,0.223,0.228,0.124,0.079,��,7.8,��
2021/12/27,13:30,0.160,0.146,0.230,0.223,0.228,0.125,0.080,��,7.0,��
2021/12/27,13:40,0.159,0.146,0.230,0.223,0.227,0.124,0.080,���쐼,7.5,��
2021/12/27,13:50,0.159,0.146,0.228,0.223,0.226,0.125,0.079,��,7.1,��
2021/12/27,14:00,0.160,0.146,0.227,0.222,0.226,0.125,0.078,���k��,7.0,��
2021/12/27,14:10,0.160,0.146,0.229,0.223,0.225,0.125,0.078,���k��,4.8,��
2021/12/27,14:20,0.160,0.146,0.229,0.222,0.226,0.124,0.079,��,7.6,��
2021/12/27,14:30,0.159,0.147,0.228,0.224,0.228,0.125,0.079,��,9.2,��
2021/12/27,14:40,0.160,0.145,0.228,0.223,0.226,0.125,0.079,���k��,7.9,��
2021/12/27,14:50,0.159,0.145,0.229,0.222,0.227,0.124,0.080,��,8.1,��
2021/12/27,15:00,0.160,0.147,0.228,0.223,0.226,0.124,0.080,���k��,7.8,��
2021/12/27,15:10,0.159,0.147,0.228,0.223,0.227,0.125,0.079,��,8.1,��
2021/12/27,15:20,0.160,0.147,0.228,0.223,0.227,0.123,0.079,��,10.3,��
2021/12/27,15:30,0.160,0.147,0.229,0.224,0.227,0.124,0.080,��,5.7,��
2021/12/27,15:40,0.160,0.146,0.229,0.224,0.227,0.124,0.080,��,4.7,��
2021/12/27,15:50,0.159,0.148,0.228,0.223,0.227,0.123,0.079,���k��,6.1,��
2021/12/27,16:00,0.161,0.147,0.229,0.224,0.226,0.125,0.080,��,6.3,��
2021/12/27,16:10,0.160,0.146,0.229,0.223,0.226,0.124,0.080,��,6.8,��
2021/12/27,16:20,0.160,0.146,0.230,0.224,0.227,0.124,0.079,��,4.5,��
2021/12/27,16:30,0.159,0.147,0.229,0.222,0.226,0.125,0.079,���쐼,5.1,��
2021/12/27,16:40,0.160,0.146,0.229,0.223,0.226,0.124,0.080,��,7.0,��
2021/12/27,16:50,0.161,0.147,0.229,0.223,0.227,0.125,0.080,��,5.3,��
2021/12/27,17:00,0.160,0.147,0.229,0.224,0.227,0.125,0.078,��,6.1,��
2021/12/27,17:10,0.161,0.146,0.229,0.224,0.228,0.125,0.080,���쐼,5.2,��
2021/12/27,17:20,0.159,0.146,0.229,0.223,0.226,0.125,0.080,���쐼,4.1,��
2021/12/27,17:30,0.159,0.147,0.229,0.224,0.226,0.125,0.079,���쐼,6.0,��
2021/12/27,17:40,0.160,0.147,0.228,0.223,0.226,0.123,0.079,��,6.6,��
2021/12/27,17:50,0.159,0.146,0.228,0.224,0.227,0.124,0.079,���쐼,5.7,��
2021/12/27,18:00,0.160,0.146,0.228,0.223,0.226,0.125,0.080,���쐼,6.1,��
2021/12/27,18:10,0.160,0.146,0.229,0.224,0.226,0.124,0.079,��,4.6,��
2021/12/27,18:20,0.161,0.147,0.228,0.225,0.227,0.125,0.079,���쐼,5.6,��
2021/12/27,18:30,0.160,0.147,0.229,0.223,0.227,0.124,0.079,���쐼,4.7,��
2021/12/27,18:40,0.159,0.147,0.229,0.223,0.228,0.125,0.078,��,6.7,��
2021/12/27,18:50,0.160,0.146,0.229,0.224,0.226,0.124,0.080,���쐼,4.9,��
2021/12/27,19:00,0.159,0.147,0.229,0.224,0.228,0.124,0.079,��,7.6,��
2021/12/27,19:10,0.159,0.146,0.228,0.223,0.226,0.124,0.080,��,5.5,��
2021/12/27,19:20,0.160,0.146,0.228,0.225,0.227,0.125,0.079,��,6.3,��
2021/12/27,19:30,0.160,0.147,0.229,0.224,0.226,0.125,0.079,���쐼,6.4,��
2021/12/27,19:40,0.160,0.147,0.229,0.223,0.227,0.124,0.079,���쐼,7.0,��
2021/12/27,19:50,0.159,0.146,0.228,0.223,0.227,0.124,0.080,��,7.3,��
2021/12/27,20:00,0.159,0.146,0.229,0.222,0.227,0.125,0.079,���쐼,7.0,��
2021/12/27,20:10,0.159,0.147,0.229,0.224,0.227,0.125,0.079,��,5.8,��
2021/12/27,20:20,0.160,0.147,0.229,0.224,0.227,0.125,0.080,���쐼,6.0,��
2021/12/27,20:30,0.159,0.146,0.229,0.224,0.226,0.124,0.078,���쐼,6.5,��
2021/12/27,20:40,0.160,0.146,0.228,0.223,0.227,0.125,0.079,��,3.4,��
2021/12/27,20:50,0.160,0.146,0.228,0.223,0.227,0.125,0.079,��,4.1,��
2021/12/27,21:00,0.160,0.146,0.229,0.224,0.227,0.125,0.080,��,4.6,��
2021/12/27,21:10,0.160,0.146,0.229,0.222,0.227,0.125,0.079,��,7.5,��
2021/12/27,21:20,0.160,0.146,0.230,0.224,0.226,0.125,0.080,��,7.3,��
2021/12/27,21:30,0.160,0.146,0.230,0.223,0.226,0.125,0.079,���쐼,6.5,��
2021/12/27,21:40,0.160,0.148,0.229,0.224,0.225,0.125,0.079,��,7.3,��
2021/12/27,21:50,0.159,0.146,0.228,0.223,0.228,0.124,0.079,��,6.7,��
2021/12/27,22:00,0.160,0.146,0.228,0.225,0.226,0.125,0.080,��,5.0,��
2021/12/27,22:10,0.160,0.147,0.229,0.224,0.226,0.125,0.079,��,5.5,��
2021/12/27,22:20,0.160,0.146,0.230,0.224,0.227,0.125,0.079,��,6.5,��
2021/12/27,22:30,0.160,0.147,0.229,0.223,0.227,0.124,0.079,��,5.5,��
2021/12/27,22:40,0.160,0.147,0.228,0.225,0.226,0.124,0.080,��,7.0,��
2021/12/27,22:50,0.160,0.147,0.229,0.223,0.226,0.125,0.079,��,6.6,��
2021/12/27,23:00,0.161,0.146,0.228,0.224,0.227,0.125,0.080,��,7.7,��
2021/12/27,23:10,0.160,0.146,0.229,0.224,0.226,0.124,0.079,��,10.0,��
2021/12/27,23:20,0.160,0.147,0.229,0.224,0.226,0.125,0.080,��,6.4,��
2021/12/27,23:30,0.160,0.148,0.230,0.224,0.227,0.124,0.079,���k��,6.6,��
2021/12/27,23:40,0.160,0.146,0.229,0.224,0.227,0.125,0.079,���k��,7.6,��
2021/12/27,23:50,0.160,0.147,0.229,0.224,0.227,0.125,0.080,��,7.3,��
